TimeMST,TemperatureF,Dew PointF,Humidity,Sea Level PressureIn,VisibilityMPH,Wind Direction,Wind SpeedMPH,Gust SpeedMPH,PrecipitationIn,Events,Conditions,WindDirDegrees,DateUTC
12:53 AM,-9.9,-15.0,78,30.52,10.0,SSE,6.9,-,N/A,,Clear,150,2013-01-15 07:53:00
1:53 AM,-8.0,-14.1,75,30.53,10.0,SSE,6.9,-,N/A,,Mostly Cloudy,150,2013-01-15 08:53:00
2:53 AM,-8.0,-14.1,75,30.52,10.0,SE,10.4,-,N/A,,Clear,140,2013-01-15 09:53:00
3:53 AM,-7.1,-14.1,72,30.52,10.0,SE,6.9,-,N/A,,Clear,130,2013-01-15 10:53:00
4:53 AM,-7.1,-14.1,72,30.54,10.0,SSE,6.9,-,N/A,,Clear,160,2013-01-15 11:53:00
5:53 AM,-9.0,-15.0,75,30.59,10.0,South,3.5,-,N/A,,Clear,170,2013-01-15 12:53:00
6:53 AM,-11.0,-17.0,75,30.66,10.0,South,8.1,-,N/A,,Clear,170,2013-01-15 13:53:00
7:53 AM,-11.0,-16.1,78,30.69,10.0,SSE,5.8,-,N/A,,Clear,150,2013-01-15 14:53:00
8:53 AM,-5.1,-11.9,72,30.72,10.0,South,3.5,-,N/A,,Scattered Clouds,170,2013-01-15 15:53:00
9:53 AM,1.9,-7.1,66,30.70,10.0,Calm,Calm,-,N/A,,Overcast,0,2013-01-15 16:53:00
11:53 AM,8.1,-4.0,58,30.63,10.0,Calm,Calm,-,N/A,,Overcast,0,2013-01-15 18:53:00
12:53 PM,10.0,-2.0,58,30.63,10.0,Calm,Calm,-,N/A,,Overcast,0,2013-01-15 19:53:00
1:53 PM,12.9,-0.0,56,30.60,10.0,Calm,Calm,-,N/A,,Overcast,0,2013-01-15 20:53:00
2:53 PM,12.9,1.0,59,30.61,10.0,North,3.5,-,N/A,,Overcast,360,2013-01-15 21:53:00
3:53 PM,12.9,1.0,59,30.61,10.0,North,4.6,-,N/A,,Overcast,360,2013-01-15 22:53:00
4:53 PM,10.9,-0.0,61,30.63,10.0,North,4.6,-,N/A,,Clear,360,2013-01-15 23:53:00
5:53 PM,7.0,-0.9,70,30.67,10.0,Calm,Calm,-,N/A,,Clear,0,2013-01-16 00:53:00
6:53 PM,1.9,-4.0,76,30.75,10.0,SSE,6.9,-,N/A,,Clear,160,2013-01-16 01:53:00
7:53 PM,5.0,-0.9,76,30.74,10.0,SSE,5.8,-,N/A,,Overcast,150,2013-01-16 02:53:00
8:53 PM,8.1,-0.0,70,30.69,10.0,SE,6.9,-,N/A,,Overcast,130,2013-01-16 03:53:00
9:53 PM,5.0,-0.9,76,30.68,10.0,West,3.5,-,N/A,,Clear,260,2013-01-16 04:53:00
10:53 PM,-0.0,-5.1,79,30.72,9.0,Calm,Calm,-,N/A,,Clear,0,2013-01-16 05:53:00
11:53 PM,1.0,-5.1,75,30.71,10.0,SE,5.8,-,N/A,,Partly Cloudy,140,2013-01-16 06:53:00